Regional Weather Roundup
Issued by NWS Wakefield, VA

Home | Current Version | Previous Version | Text Only | Print | Product List | Glossary Off
Versions: 1 2 3 4 5 6 7 8 9 10 11 12 13 14 15 16 17 18 19 20 21 22 23 24 25 26 27 28 29 30 31 32 33 34 35 36 37 38 39 40 41 42 43 44 45 46 47 48 49 50

597
ASUS41 KAKQ 051315
RWRAKQ

REGIONAL WEATHER ROUNDUP
NATIONAL WEATHER SERVICE WAKEFIELD VA
900 AM EDT THU MAY 05 2016

Note: "fair" indicates few or no clouds below 12,000 feet with no
significant weather and/or obstructions to visibility. * = Denotes
station may not report precipitation (e.g., rain,snow,etc.),
thunder or fog.

VAZ042-051-052>054-056-051400-
NORTHERN VIRGINIA

CITY           SKY/WX    TMP DP  RH WIND       PRES   REMARKS
WASH NATIONAL  DRIZZLE   51  49  92 NE10      29.68R FOG
DULLES         CLOUDY    51  48  89 NE10      29.68R FOG
FORT BELVOIR   DRIZZLE   52  48  87 VRB1      29.67S FOG
QUANTICO       CLOUDY    54  49  83 NE14G20   29.67S
FREDERICKSBRG*   N/A    N/A N/A N/A NE5       29.66R
STAFFORD*      CLOUDY    51  48  90 NE7       29.70S
WARRENTON      CLOUDY    52  46  80 NE7       29.67R
CULPEPER*      CLOUDY    51  50  95 CALM      29.68R FOG
MANASSAS*      CLOUDY    52  52 100 NE8       29.67S
LEESBURG*      CLOUDY    52  52 100 NE5       29.69R
WINCHESTER     CLOUDY    50  48  93 NE3       29.67S FOG
FRONT ROYAL*   CLOUDY    48  48 100 NE5       29.66S
LURAY*         LGT RAIN  48  48 100 N9        29.66R
$$

VAZ048-049-060>072-079>083-051400-
CENTRAL AND SOUTH CENTRAL VIRGINIA

CITY           SKY/WX    TMP DP  RH WIND       PRES   REMARKS
RICHMOND       CLOUDY    51  49  92 NE13      29.63R
CHESTERFIELD*  CLOUDY    54  39  58 NE7       29.64R
PETERSBURG*    CLOUDY    55  55 100 NE7       29.62S FOG
HANOVER        CLOUDY    51  49  92 NE8       29.65R
TAPPAHANNOCK*  CLOUDY    52  52  99 N6        29.65S
QUINTON*       CLOUDY    51  50  97 NE8       29.62F
CHARLOTTSVILLE LGT RAIN  51  48  89 NE12      29.64R FOG
GORDONSVILLE*  CLOUDY    50  49  97 NE7       29.65R
ORANGE*        RAIN      50  50 100 CALM      29.67S
LOUISA*        DRIZZLE   54  52  94 NE7       29.64R
BUMPASS*       CLOUDY    50  49  98 NE5       29.64S
FARMVILLE*     CLOUDY    56  55  96 NE10      29.60S
CREWE*         CLOUDY    54  54 100 E5        29.61R
FORT PICKETT*  NOT AVBL
CHASE CITY*    CLOUDY    55  53  94 CALM      29.59S
CLARKSVILLE*   CLOUDY    55  55 100 E5        29.58F
SOUTH HILL*    CLOUDY    55  52  92 CALM      29.64F
LAWRENCEVILLE* CLOUDY    55  54  95 NE3       29.59S
EMPORIA*       CLOUDY    55  52  88 N8        29.60F
$$

VAZ088>098-051400-
SOUTHEAST VIRGINIA

CITY           SKY/WX    TMP DP  RH WIND       PRES   REMARKS
NORFOLK        CLOUDY    52  48  86 NE13G22   29.60S
VIRGINIA BEACH CLOUDY    54  48  80 NE15G22   29.60S
NORFOLK NAVAL  CLOUDY    54  50  86 NE13G20   29.62F
WEST POINT*    CLOUDY    52  50  93 NE9       29.64F
SALUDA*        CLOUDY    52  49  92 NE8       29.63S
NEWPORT NEWS   CLOUDY    53  51  93 NE12      29.62R
LANGLEY AFB    CLOUDY    53  51  93 NE13      29.61S
FORT EUSTIS    CLOUDY    53  53  99 NE8       29.60S FOG
WILLIAMSBURG*  FAIR      55  54  94 E3        29.63S
HR EXEC AP*    CLOUDY    54  50  87 NE7       29.63S
FRANKLIN*      CLOUDY    54  52  94 E10       29.61S FOG
US460-WAKEFLD  CLOUDY    53  51  93 NE7       29.61S
$$

VAZ020-022-025-037-045-051400-
WEST CENTRAL AND SOUTHWEST VIRGINIA

CITY           SKY/WX    TMP DP  RH WIND       PRES   REMARKS
STAUNTON*      DRIZZLE   53  53 100 NE7       29.65R
WAYNESBORO*    CLOUDY    50  49  96 CALM      29.63R
HOT SPRINGS VA CLOUDY    42  42 100 N8        29.62S
LYNCHBURG      LGT RAIN  51  50  96 CALM      29.62F
DANVILLE       LGT RAIN  52  50  93 NW9       29.61S FOG
SOUTH BOSTON*  CLOUDY    52  51  95 W8        29.60R
MARTINSVILLE   RAIN      47  46  96 N5        29.66R
ROANOKE        RAIN      50  48  93 W5        29.66R FOG
BLACKSBURG     RAIN      45  43  93 W3        29.69R
DUBLIN*        LGT RAIN  46  41  84 NW7       29.68R
MARION*        CLOUDY    45  36  70 W10       29.72R
HILLSVILLE*    CLOUDY    42  40  91 NW9       29.65R
RICHLANDS*     PTSUNNY   42  29  58 N9        29.71S
WISE*          CLOUDY    41  37  87 N5        29.74R
ABINGDON*      CLOUDY    44  38  78 NW7       29.73R
$$

MDZ021>025-VAZ099-100-051400-
SOUTHERN MARYLAND AND THE DELMARVA PENINSULA

CITY           SKY/WX    TMP DP  RH WIND       PRES   REMARKS
PATUXENT RIVER CLOUDY    51  46  83 NE14      29.66R
BAY BRIDGE APT NOT AVBL
LEONARDTOWN    CLOUDY    50  46  87 NE5       29.68R
DOVER          CLOUDY    48  48 100 NE12      29.66S
GEORGETOWN     CLOUDY    49  46  90 NE10      29.67R
EASTON         CLOUDY   N/A N/A N/A NE10      29.71R
CAMBRIDGE      CLOUDY    50  45  81 E8        29.66R
SALISBURY      CLOUDY    49  47  93 NE7       29.66R FOG
OCEAN CITY     CLOUDY    49  46  90 NE10G21   29.65S
WALLOPS ISLAND LGT RAIN  50  47  89 NE20      29.64R
ACCOMACK*      CLOUDY   N/A N/A N/A NE13      29.63S
$$

NCZ012>017-030>032-051400-
NORTH CENTRAL AND EASTERN NORTH CAROLINA

CITY           SKY/WX    TMP DP  RH WIND       PRES   REMARKS
ROANOKE RAPIDS CLOUDY    55  52  88 NE6       29.58S FOG
RALEIGH        PTSUNNY   59  56  89 NW6       29.57R
ELIZABETH CITY CLOUDY    52  51  97 NE14      29.59S
AHOSKIE*       CLOUDY    54  52  94 NE7       29.59F FOG
EDENTON*       CLOUDY    55  55 100 NE8       29.59S FOG
CURRITUCK*     NOT AVBL
KILL DEVIL HLS CLOUDY    52  52 100 N8G18     29.55S FOG
MANTEO         CLOUDY    52  52 100 N18       29.56F FOG
CAPE HATTERAS  CLOUDY    58  56  93 NE10G21   29.51F
TARBORO*       CLOUDY    55  54  94 NE7       29.59S FOG
GOLDSBORO      CLOUDY    60  60 100 NE7       29.53S
WASHINGTON     CLOUDY    57  54  89 NE10      29.56S
GREENVILLE     CLOUDY    57  55  94 NE5       29.60F
NEW BERN       CLOUDY    62  55  77 N6        29.55F
WILMINGTON     PTSUNNY   66  61  84 E5        29.52S
$$

VAZ048-051400-
ELSEWHERE

CITY           SKY/WX    TMP DP  RH WIND       PRES   REMARKS
HARRISBURG PA  CLOUDY    51  45  79 E6        29.70R
BALTIMORE      DRIZZLE   50  48  93 NE9       29.68R FOG
ANNAPOLIS      CLOUDY    51  48  89 NE6       29.68R
ANDREWS AFB    CLOUDY    50  48  93 NE9       29.66S FOG
PHILADELPHIA   CLOUDY    50  43  77 NE15G21   29.71R
HENDERSON NC   CLOUDY    57  57 100 NE7       29.58S
GREENSBORO     RAIN      50  49  96 N7        29.61R FOG
ROCKY MOUNT    CLOUDY    56  53  90 NE9       29.57S
$$

VAZ100-051400-
MARINE

STATION/POSITION TIME  TEMP    WIND        PRES    WAVE   SWELL
                       AIR SEA DIR/SP/G            HT/PER HT/PER
                 (UTC) (F)     (DEG/KT/KT) (MB)    (FT/S) (FT/S)
BRANDYWINE LGT   1200   48      50/ 19/ 22 1004.1F
CAPE MAY NJ      1200   48 56   40/  8/ 15 1004.0S
LEWES DE         1200   49 54   40/ 16/ 20 1004.3R
15NM E FENWICK I 1250   48 51              1003.4R   8/ 7
OCEAN-CITY-INLET 1200   49 54   50/  6/ 12 1003.3R
WACHAPREAGUE VA  1200   51 58   40/ 18/ 25 1002.7R
THOMAS POINT MD  1300   51 58   60/ 13/ 15 1006.0R
GOOSES REEF MD   1200   52 58   50/ 16/ 19 1005.1R   2/ 3
COVE POINT MD    1200   49      80/ 12/ 14 1004.5R
SOLOMONS ISLAND  1200   51 60   40/  7/ 11   N/A
BISHOPS HEAD MD  1200   51 58   50/ 12/ 16 1003.0R
PINEY POINT MD   1200           70/  4/  6   N/A
POTOMAC MD       1200   51 59   40/ 12/ 14 1002.8R   1/ 2
CAMBRIDGE MD     1200   50 61   50/ 12/ 14 1003.3R
LEWISETTA VA     1200   52 61   60/  9/ 13 1003.5R
RAPPAHANNOCK LGT 1200           30/ 15/ 18 1003.5R
STINGRAY PT      1200   53 61   50/ 14/ 19 1003.6R   2/ 3
YORK RVR RNG VA  1200   53      60/ 14/ 17 1002.3R
YORKTOWN VA      1200   53 63   50/ 13/ 15 1002.5R
JAMESTOWN VA     1200   53 67   40/  6/ 10   N/A     0
DOMINION TERM VA 1200   53      50/  5/  9 1002.6R
KIPTOPEKE VA     1200      61   60/  9/ 16   N/A
CHES BAY BRIDGE  1200   52 61   30/ 20/ 25 1002.0R
CAPE HENRY VA    1200   51      40/ 19/ 22   N/A
CHESAPEAKE LGHT  1200   49      40/ 22/ 24 1002.9R
WILLOUBY STN VA  1200   52      60/ 16/ 19 1003.5R
CAPE HENRY BUOY  1212      56                N/A     6/ 6
CAPE CHARLES BUO 1226      57                N/A     5/ 7   2/ 7
OFFSHORE WE BUOY 1221      55                N/A     6/ 7   2/11
64NM E OF VA BCH 1250   51 52   10/ 19/ 23 1000.3F   6/ 7
DUCK PIER NC     1200   51 61   20/ 18/ 21 1001.2R
44100 DUCK FRF   1224      56                N/A     5/ 6
44056 DUCK FRF   1211      59                N/A     5/ 6
OREGON INLET NC  1200   53 62   10/ 14/ 19 1000.2F
HATTERAS NC      1200   59 69   20/ 15/ 18  999.3F
DIAMOND SHLS NC  1250   60 71   10/ 19/ 23  998.0F   4/ 5   2/15
CAPE LOOKOUT NC  1200   62      20/ 14/ 17  999.2R
$$




USA.gov is the U.S. government's official web portal to all federal, state and local government web resources and services.